Location: Complexul Astronomic Baia Mare
(47.6577°N, 23.5639°E)
Time: 05:52:54
(UTC+03:00)

ISS - Pass Details

Date: 31 March 2017
Orbit: 399 x 409 km, 51.6° (Epoch: 30 March)

Event Time Altitude Azimuth Distance (km) Brightness Sun altitude
Rises 20:57:21 0° 244° (WSW) 2,304 0.7 -11.1°
Reaches altitude 10° 20:59:25 10° 244° (WSW) 1,450 -0.4 -11.5°
Maximum altitude 21:02:39 88° 163° (SSE) 407 -3.9 -12.0°
Enters shadow 21:05:25 14° 67° (ENE) 1,246 -1.8 -12.4°
